Regional Weather Roundup
Issued by NWS Newport/Morehead, NC

Current Version | Previous Version | Graphics & Text | Print | Product List | Glossary On
Versions: 1 2 3 4 5 6 7 8 9 10 11 12 13 14 15 16 17 18 19 20 21 22 23 24 25 26 27 28 29 30 31 32 33 34 35 36 37 38 39 40 41 42 43 44 45 46 47 48 49 50
000 ASUS42 KMHX 300313 RWRMHX WEATHER ROUNDUP FOR EASTERN NORTH CAROLINA NATIONAL WEATHER SERVICE NEWPORT/MOREHEAD CITY NC 1100 PM EDT THU SEP 29 2016 NOTE: "FAIR" INDICATES FEW OR NO CLOUDS BELOW 12,000 FEET WITH NO SIGNIFICANT WEATHER AND/OR OBSTRUCTIONS TO VISIBILITY NCZ015>017-031-032-045>047-102-103-300400- NORTH COAST CITY SKY/WX TMP DP RH WIND PRES REMARKS EDENTON CLEAR 73 73 100 CALM 30.07R ELIZABETH CITY MOCLDY 72 71 97 CALM 30.06S KITTY HAWK CLOUDY 74 74 100 CALM 30.04R MANTEO CLOUDY 73 73 100 CALM 30.05S $$ NCZ045>047-081-094-103-104-300400- CENTRAL COAST CITY SKY/WX TMP DP RH WIND PRES REMARKS FRISCO MOCLDY 78 73 84 S7 30.05R $$ NCZ095-097-098-100-101-300400- SOUTHERN COAST CITY SKY/WX TMP DP RH WIND PRES REMARKS BEAUFORT CLEAR 78 74 87 S8 30.04S CEDAR ISLAND NOT AVBL JACKSONVILLE CLEAR 75 73 93 SE3 30.03S PINEY ISLAND LGT RAIN N/A N/A N/A VRB3 30.04S WILMINGTON CLEAR 77 72 84 S5 30.02R $$ NCZ011>013-027>030-043-044-078>080-089-090>093-098-300400- COASTAL PLAIN CITY SKY/WX TMP DP RH WIND PRES REMARKS AHOSKIE MOCLDY 70 69 98 CALM 30.07S CLINTON CLEAR 72 72 100 CALM 30.03S ELIZABETHTOWN NOT AVBL GOLDSBORO CLEAR 72 72 100 E6 30.02R GREENVILLE PTCLDY 72 72 100 CALM 30.06S HAVELOCK CLEAR 71 69 93 CALM 30.05S KENANSVILLE CLEAR 72 72 100 CALM 30.04R KINSTON CLEAR 73 72 95 E3 30.04S NEW BERN CLEAR 71 69 93 CALM 30.05F RICHLANDS NOT AVBL ROCKY MOUNT MOCLDY 71 71 100 VRB3 30.05S WASHINGTON PTCLDY 71 70 98 E3 30.05S WHITEVILLE FOG 71 70 97 CALM 30.00S VSB 1/2 $$ AMZ130-135-150-152-154-156-158-170-250-252-270-ANZ085-086-088-633-658-670-300400- MARINE OBSERVATIONS STATION/POSITION TIME TEMP WIND PRES WAVE SWELL AIR SEA DIR/SP/G HT/PER HT/PER (UTC) (F) (DEG/KT/KT) (MB) (FT/S) (FT/S) CHESAPEAKE LIGHT NOT AVBL 64 E VA BEACH 0250 75 74 170/ 8/ 10 1017.0 8/ 8 8/ 8 DUCK 0248 76 76 160/ 2/ 3 1016.9 2 E DUCK 0241 76 N/A 5/ 8 2/11 OREGON INLET 0248 76 78 140/ 2/ 3 1017.3 13E OREGON INLT 0200 77 N/A 6/ 8 7/ 8 HATTERAS CG 0248 78 80 160/ 7/ 9 1017.3 DIAMOND BUOY 0250 80 78 170/ 14/ 17 1017.2 4/ 8 3/ 8 CAPE LOOKOUT 0300 79 160/ 14/ 15 1017.1 BEAUFORT LAB 0248 79 77 170/ 11/ 14 1016.7 30 SE NEW RVR IN 0208 81 83 160/ 14/ 17 1017.0 30 SE NEW RVR IN 0255 83 N/A 3/ 6 27 SE WRIGHTSVLE 0208 81 81 160/ 10/ 14 1016.9 5 SE WRIGHTSVLE 0208 80 81 170/ 12/ 16 1017.5 225 S CAPE HAT 0250 81 83 200/ 12/ 14 1018.5 4/ 9 2/ 9 41 SE CHARLESTON 0250 82 82 200/ 12/ 14 1015.4 3/ 5 2/11 $$

USA.gov is the U.S. government's official web portal to all federal, state and local government web resources and services.